Location: Oberwangen
(47.4286°N, 8.9679°E)
Time: 14:46:27
(UTC+00:00)

NOSS 0 Rocket - Pass Details

Date: 20 June 2021
Orbit: 934 x 956 km, 70.0° (Epoch: 03 August)

Event Time Altitude Azimuth Distance (km) Brightness Sun altitude
Exits shadow 21:17:59 15° 175° (S) 2,289 5.4 -13.5°
Maximum altitude 21:22:42 44° 109° (ESE) 1,286 4.3 -13.9°
Drops below altitude 10° 21:28:34 10° 39° (NE) 2,688 6.6 -14.4°
Sets 21:31:12 0° 34° (NNE) 3,640 7.4 -14.6°
